Location: Mercogliano
(40.9167°N, 14.7333°E)
Time: 14:16:51
(UTC+00:00)

Cosmos 1092 Rocket - Pass Details

Date: 18 September 2020
Orbit: 954 x 995 km, 82.9° (Epoch: 28 October)

Event Time Altitude Azimuth Distance (km) Brightness Sun altitude
Rises 19:51:02 0° 348° (NNW) 3,643 7.6 -30.6°
Reaches altitude 10° 19:53:34 10° 344° (NNW) 2,696 6.9 -31.0°
Maximum altitude 19:59:34 57° 268° (W) 1,123 4.4 -31.9°
Enters shadow 20:00:15 54° 242° (WSW) 1,158 4.4 -32.0°
